User: anonymous   Login
Location: Albany
(35.0000°S, 118.0000°E)
Time: 18:06:10
(UTC-05:00)
Language:

Cosmos 2227 Rocket - Orbit

View from above orbital plane
View from above orbital plane
View from above satellite
View from above satellite

Ground track
Ground track

The orbit data is extracted from the following two-line orbital elements,

1 22285U 92093B   15061.24002229 -.00000098  00000-0 -26040-4 0  9991
2 22285 071.0229 170.0403 0006115 305.5993 054.4560 14.14958198144007
Epoch (UTC): 02 March 2015 05:45:37
Eccentricity: 0.0006115
inclination: 71.0229°
perigee height: 838 km
apogee height: 847 km
right ascension of ascending node: 170.0403°
argument of perigee: 305.5993°
revolutions per day: 14.14958198
mean anomaly at epoch: 54.4560°
orbit number at epoch: 14400

The dashed part of the orbit path shows where the satellite is in the earth's shadow,  

DLR